Change the Weather History Date:

Friday, October 11, 2013

  Actual Average (KSPI) Record (KSPI)
Temperature  
Mean Temperature 66 °F 57 °F  
Max Temperature 78 °F 68 °F 90 °F (1962)
Min Temperature 53 °F 45 °F 28 °F (1987)
Degree Days  
Heating Degree Days 0 9  
Month to date heating degree days 86  
Since 1 July heating degree days 167  
Cooling Degree Days 0 1  
Month to date cooling degree days 13  
Year to date cooling degree days 1112  
Growing Degree Days 16 (Base 50)    
Moisture  
Dew Point 54 °F    
Average Humidity 70    
Maximum Humidity 100    
Minimum Humidity 41    
Precipitation  
Precipitation 0.00 in 0.10 in 1.38 in (1931)
Month to date precipitation 1.08  
Year to date precipitation 29.63  
Snow  
Snow 0.00 in 0.00 in T in (1909)
Month to date snowfall 0.0  
Since 1 July snowfall 0.0  
Since 1 September snowfall 0.0  
Snow Depth -    
Sea Level Pressure  
Sea Level Pressure 30.00 in    
Wind  
Wind Speed 7 mph (SSE)    
Max Wind Speed 15 mph    
Max Gust Speed 21 mph    
Visibility 9 miles    
Events      
T = Trace of Precipitation, MM = Missing Value Source: NWS Daily Summary

Daily Weather History Graph

Daily Weather History Graph

Search for Another Location

Airport or City:

Trip Planner

Search our weather history database for the weather conditions in past years. The results will help you decide how hot, cold, wet, or windy it might be!

Date:

Astronomy

Oct. 11, 2013 Rise Set
Actual Time 7:03 AM CDT 6:23 PM CDT
Civil Twilight 6:36 AM CDT 6:50 PM CDT
Nautical Twilight 6:05 AM CDT 7:21 PM CDT
Astronomical Twilight 5:34 AM CDT 7:52 PM CDT
Moon 1:44 PM CDT (10/11) No Moon Set
Length of Visible Light 12h 14m
Length of Day
11h 20m
Waxing Crescent, 47% of the Moon is Illuminated
Oct 11
Waxing Crescent
Oct 11
First Quarter
Oct 18
Full
Oct 26
Last Quarter
Nov 3
New

Hourly Weather History & Observations

Time (CDT) Temp. Dew Point Humidity Pressure Visibility Wind Dir Wind Speed Gust Speed Precip Events Conditions
12:15 AM 60.8 °F 53.6 °F 77% 30.03 in 10.0 mi SE 5.8 mph - N/A   Scattered Clouds
12:35 AM 60.8 °F 53.6 °F 77% 30.02 in 10.0 mi SE 5.8 mph - N/A   Scattered Clouds
12:55 AM 60.8 °F 55.4 °F 82% 30.03 in 10.0 mi SE 5.8 mph - N/A   Mostly Cloudy
1:15 AM 60.8 °F 55.4 °F 82% 30.02 in 10.0 mi SE 5.8 mph - N/A   Overcast
1:55 AM 60.8 °F 55.4 °F 82% 30.03 in 10.0 mi SSE 5.8 mph - N/A   Mostly Cloudy
2:15 AM 59.0 °F 55.4 °F 88% 30.02 in 10.0 mi SE 6.9 mph - N/A   Scattered Clouds
2:35 AM 59.0 °F 53.6 °F 82% 30.02 in 10.0 mi SE 6.9 mph - N/A   Clear
2:55 AM 59.0 °F 53.6 °F 82% 30.01 in 10.0 mi SE 5.8 mph - N/A   Clear
3:15 AM 59.0 °F 53.6 °F 82% 30.01 in 10.0 mi SE 6.9 mph - N/A   Clear
3:35 AM 57.2 °F 53.6 °F 88% 30.02 in 10.0 mi SE 6.9 mph - N/A   Clear
3:55 AM 59.0 °F 53.6 °F 82% 30.03 in 10.0 mi SE 6.9 mph - N/A   Clear
4:15 AM 57.2 °F 53.6 °F 88% 30.03 in 10.0 mi SE 4.6 mph - N/A   Clear
4:35 AM 55.4 °F 53.6 °F 94% 30.04 in 10.0 mi SSE 4.6 mph - N/A   Scattered Clouds
4:55 AM 55.4 °F 53.6 °F 94% 30.04 in 10.0 mi SSE 4.6 mph - N/A   Clear
5:15 AM 55.4 °F 53.6 °F 94% 30.05 in 7.0 mi SSE 4.6 mph - N/A   Scattered Clouds
5:35 AM 55.4 °F 53.6 °F 94% 30.05 in 7.0 mi SSE 3.5 mph - N/A   Scattered Clouds
5:55 AM 55.4 °F 53.6 °F 94% 30.06 in 7.0 mi SSE 3.5 mph - N/A   Clear
6:15 AM 53.6 °F 53.6 °F 100% 30.05 in 5.0 mi SE 5.8 mph - N/A   Clear
6:35 AM 55.4 °F 53.6 °F 94% 30.05 in 7.0 mi SE 4.6 mph - N/A   Clear
6:55 AM 55.4 °F 53.6 °F 94% 30.05 in 5.0 mi SE 5.8 mph - N/A   Clear
7:15 AM 55.4 °F 53.6 °F 94% 30.05 in 5.0 mi SE 5.8 mph - N/A   Clear
7:35 AM 55.4 °F 53.6 °F 94% 30.05 in 5.0 mi SSE 4.6 mph - N/A   Scattered Clouds
7:55 AM 55.4 °F 53.6 °F 94% 30.05 in 5.0 mi SSE 4.6 mph - N/A   Clear
8:15 AM 57.2 °F 55.4 °F 94% 30.05 in 7.0 mi SSE 4.6 mph - N/A   Mostly Cloudy
8:35 AM 60.8 °F 55.4 °F 82% 30.06 in 10.0 mi SSE 5.8 mph - N/A   Scattered Clouds
8:55 AM 60.8 °F 57.2 °F 88% 30.06 in 10.0 mi SSE 6.9 mph - N/A   Clear
9:15 AM 62.6 °F 57.2 °F 82% 30.06 in 10.0 mi SSE 3.5 mph - N/A   Clear
9:35 AM 64.4 °F 59.0 °F 83% 30.06 in 10.0 mi SSE 4.6 mph - N/A   Clear
9:55 AM 64.4 °F 59.0 °F 83% 30.06 in 10.0 mi South 3.5 mph - N/A   Scattered Clouds
10:15 AM 69.8 °F 59.0 °F 68% 30.05 in 10.0 mi South 4.6 mph - N/A   Scattered Clouds
10:35 AM 71.6 °F 59.0 °F 64% 30.04 in 10.0 mi South 9.2 mph - N/A   Scattered Clouds
10:55 AM 73.4 °F 59.0 °F 61% 30.04 in 10.0 mi SSE 10.4 mph - N/A   Scattered Clouds
11:15 AM 73.4 °F 57.2 °F 57% 30.03 in 10.0 mi South 11.5 mph - N/A   Overcast
11:35 AM 71.6 °F 55.4 °F 57% 30.03 in 10.0 mi South 9.2 mph - N/A   Overcast
11:55 AM 75.2 °F 55.4 °F 50% 30.03 in 10.0 mi South 10.4 mph 16.1 mph N/A   Mostly Cloudy
12:15 PM 73.4 °F 55.4 °F 53% 30.03 in 10.0 mi South 11.5 mph 16.1 mph N/A   Scattered Clouds
12:35 PM 77.0 °F 55.4 °F 47% 30.02 in 10.0 mi South 11.5 mph - N/A   Mostly Cloudy
12:55 PM 77.0 °F 55.4 °F 47% 30.01 in 10.0 mi SSE 9.2 mph - N/A   Scattered Clouds
1:15 PM 75.2 °F 53.6 °F 47% 30.00 in 10.0 mi SSE 10.4 mph - N/A   Scattered Clouds
1:35 PM 77.0 °F 53.6 °F 44% 29.98 in 10.0 mi SSE 8.1 mph 17.3 mph N/A   Scattered Clouds
1:55 PM 78.8 °F 53.6 °F 42% 29.98 in 10.0 mi South 10.4 mph - N/A   Scattered Clouds
2:15 PM 78.8 °F 53.6 °F 42% 29.97 in 10.0 mi South 10.4 mph 17.3 mph N/A   Scattered Clouds
2:35 PM 78.8 °F 53.6 °F 42% 29.96 in 10.0 mi SE 12.7 mph 20.7 mph N/A   Clear
2:55 PM 78.8 °F 53.6 °F 42% 29.95 in 10.0 mi SSE 9.2 mph - N/A   Clear
3:15 PM 78.8 °F 55.4 °F 44% 29.95 in 10.0 mi SSE 8.1 mph 19.6 mph N/A   Scattered Clouds
3:35 PM 78.8 °F 53.6 °F 42% 29.95 in 10.0 mi SSE 13.8 mph 20.7 mph N/A   Clear
3:55 PM 78.8 °F 53.6 °F 42% 29.94 in 10.0 mi SSE 10.4 mph - N/A   Clear
4:15 PM 77.0 °F 53.6 °F 44% 29.94 in 10.0 mi SSE 10.4 mph - N/A   Clear
4:35 PM 77.0 °F 53.6 °F 44% 29.94 in 10.0 mi SSE 11.5 mph 17.3 mph N/A   Clear
4:55 PM 77.0 °F 51.8 °F 41% 29.93 in 10.0 mi SSE 15.0 mph 18.4 mph N/A   Clear
5:15 PM 77.0 °F 51.8 °F 41% 29.93 in 10.0 mi SSE 11.5 mph 19.6 mph N/A   Clear
5:35 PM 75.2 °F 53.6 °F 47% 29.94 in 10.0 mi SSE 9.2 mph 16.1 mph N/A   Clear
5:55 PM 73.4 °F 53.6 °F 50% 29.94 in 10.0 mi SSE 8.1 mph - N/A   Clear
6:15 PM 71.6 °F 53.6 °F 53% 29.93 in 10.0 mi SSE 8.1 mph - N/A   Clear
6:35 PM 69.8 °F 53.6 °F 56% 29.94 in 10.0 mi SSE 6.9 mph - N/A   Clear
6:55 PM 68.0 °F 53.6 °F 60% 29.94 in 10.0 mi SSE 5.8 mph - N/A   Clear
7:15 PM 68.0 °F 53.6 °F 60% 29.94 in 10.0 mi SSE 6.9 mph - N/A   Clear
7:35 PM 66.2 °F 53.6 °F 64% 29.94 in 10.0 mi SSE 6.9 mph - N/A   Clear
7:55 PM 66.2 °F 53.6 °F 64% 29.95 in 10.0 mi South 6.9 mph - N/A   Clear
8:15 PM 64.4 °F 53.6 °F 68% 29.96 in 10.0 mi SSE 6.9 mph - N/A   Clear
8:35 PM 62.6 °F 53.6 °F 72% 29.96 in 10.0 mi SSE 6.9 mph - N/A   Clear
8:55 PM 62.6 °F 53.6 °F 72% 29.96 in 10.0 mi SSE 6.9 mph - N/A   Clear
9:15 PM 62.6 °F 53.6 °F 72% 29.97 in 10.0 mi South 5.8 mph - N/A   Clear
9:35 PM 62.6 °F 53.6 °F 72% 29.98 in 10.0 mi South 5.8 mph - N/A   Clear
9:55 PM 62.6 °F 53.6 °F 72% 29.98 in 10.0 mi SE 4.6 mph - N/A   Clear
10:15 PM 60.8 °F 53.6 °F 77% 29.98 in 10.0 mi SE 4.6 mph - N/A   Clear
10:35 PM 59.0 °F 53.6 °F 82% 29.98 in 10.0 mi SSE 4.6 mph - N/A   Clear
10:55 PM 59.0 °F 53.6 °F 82% 29.98 in 10.0 mi SSE 4.6 mph - N/A   Clear
11:15 PM 59.0 °F 53.6 °F 82% 29.98 in 10.0 mi SE 5.8 mph - N/A   Clear
11:35 PM 59.0 °F 53.6 °F 82% 29.98 in 10.0 mi SSE 4.6 mph - N/A   Clear
11:55 PM 59.0 °F 53.6 °F 82% 29.98 in 10.0 mi SSE 4.6 mph - N/A   Clear